Flag for U.S.A. Weather past 2 weeks in Kailua-Kona, Hawaii, U.S.A.

Now
77 °F

Overcast.


Feels Like: 79 °F
Forecast: 61 / 78 °F
Wind: 5 mph from Southeast

Location: Keahole Airport

Current Time: Jan 31, 2015 at 12:13:29 AM

Latest Report: Jan 30, 2015 at 10:53 PM


Visibility: 10 mi

Pressure: 29.98 "Hg

Humidity: 71%

Dew point: 67 °F

Location of Kailua-KonaLocation

Historic Weather in Kailua-Kona — Graph

°F

Kailua-Kona temperature yesterday

Maximum temperature yesterday: 81 °F (at 12:53 PM)
Minimum temperature yesterday: 70 °F (at 6:53 AM)
Average temperature yesterday: 76 °F

Past Weeks' High & Low Weather Summary

 TemperatureHumidityPressure
High83 °F (Jan 23, 3:53 PM)87% (Jan 24, 5:53 AM)30.10 "Hg (Jan 24, 5:53 AM)
Low68 °F (Jan 16, 4:53 AM)44% (Jan 17, 9:53 AM)29.84 "Hg (Jan 26, 3:53 PM)
Average76 °F67%29.97 "Hg
* Reported Jan 15 10:53 PM — Jan 30 10:53 PM, Kailua-Kona, Weather by CustomWeather, © 2014

Note: Actual official high and low records may vary slightly from our data, if they occured in-between our weather recording intervals... More about our weather records

Advertising

Kailua-Kona weather history for previous 24 hours

 ConditionsComfort  
Time TempWeatherWind HumidityBarometerVisibility
10:53 PM
Jan 30
77 °FOvercast.5 mph71%29.98 "Hg10 mi
9:53 PM77 °FOvercast.No wind74%29.98 "Hg10 mi
8:53 PM77 °FPassing clouds.7 mph77%29.97 "Hg10 mi
7:53 PM77 °FPassing clouds.9 mph74%29.96 "Hg10 mi
6:53 PM77 °FPassing clouds.9 mph71%29.93 "Hg10 mi
5:53 PM78 °FOvercast.9 mph71%29.92 "Hg10 mi
4:53 PM78 °FPartly sunny.8 mph69%29.91 "Hg10 mi
3:53 PM79 °FOvercast.9 mph67%29.91 "Hg10 mi
2:53 PM81 °FBroken clouds.10 mph62%29.90 "Hg10 mi
1:53 PM81 °FSunny.8 mph62%29.91 "Hg10 mi
12:53 PM81 °FSunny.9 mph60%29.93 "Hg10 mi
11:53 AM80 °FSunny.9 mph62%29.94 "Hg10 mi
10:53 AM79 °FSunny.7 mph65%29.96 "Hg10 mi
9:53 AM78 °FSunny.7 mph64%29.96 "Hg10 mi
8:53 AM78 °FSunny.No wind66%29.96 "Hg10 mi
7:53 AM73 °FSunny.3 mph74%29.94 "Hg10 mi
6:53 AM70 °FClear.5 mph81%29.93 "Hg10 mi
5:53 AM72 °FPassing clouds.No wind78%29.91 "Hg10 mi
5:21 AM72 °FPassing clouds.No wind78%29.90 "Hg10 mi
4:53 AM73 °FPassing clouds.No wind76%29.90 "Hg10 mi
4:28 AM73 °FMostly cloudy.No wind74%29.89 "Hg10 mi
3:53 AM72 °FPassing clouds.No wind78%29.90 "Hg10 mi
3:41 AM72 °FPassing clouds.3 mph78%29.90 "Hg10 mi
2:53 AM73 °FPassing clouds.No wind76%29.90 "Hg10 mi
1:53 AM72 °FClear.3 mph73%29.91 "Hg10 mi
12:53 AM72 °FClear.5 mph78%29.91 "Hg10 mi
Weather by CustomWeather, © 2014

See weather overviewHow to use our weather pages